2019-322T03:24:48.621,   1, 180,   1,   120,   4,          0,     46.364,  99218.184,    96.793,   -26.577,     0.314,   222.582, 2, 5.486E-04, -1.00,   2,  3.604E-03,  7.514E-05,  6.567E-14,  1.489E-14,  1.137E+02,  2.578E+01, 255
2019-322T03:26:48.622,   1, 180,   1,   120,   4,          0,     46.364,  99218.184,    96.797,   -26.576,     0.314,   221.373, 2, 5.486E-04, -1.00,   2,  3.655E-03,  7.374E-05,  1.145E-13,  1.495E-14,  1.956E+02,  2.553E+01, 255
2019-322T03:28:48.623,   1, 180,   1,   120,   4,          0,     46.364,  99218.184,    96.800,   -26.576,     0.314,   220.163, 2, 5.486E-04, -1.00,   2,  3.891E-03,  7.436E-05,  1.311E-13,  1.452E-14,  2.103E+02,  2.330E+01, 255
2019-322T03:30:48.625,   1, 180,   1,   120,   4,          0,     46.364,  99218.184,    96.804,   -26.575,     0.314,   218.954, 2, 5.486E-04, -1.00,   2,  3.676E-03,  7.423E-05,  2.972E-14,  1.450E-14,  5.047E+01,  2.462E+01, 255
2019-322T03:32:48.626,   1, 180,   1,   120,   4,          0,     46.364,  99218.184,    96.808,   -26.574,     0.313,   217.745, 2, 5.486E-04, -1.00,   2,  3.893E-03,  7.716E-05,  8.561E-15,  1.438E-14,  1.373E+01,  2.306E+01, 255
2019-322T03:34:48.627,   1, 180,   1,   120,   4,          0,     46.364,  99218.184,    96.812,   -26.574,     0.313,   216.536, 2, 5.486E-04, -1.00,   2,  3.649E-03,  7.429E-05,  2.673E-14,  1.453E-14,  4.573E+01,  2.486E+01, 255
2019-322T03:36:48.629,   1, 180,   1,   120,   4,          0,     46.364,  99218.184,    96.815,   -26.573,     0.313,   215.326, 2, 5.486E-04, -1.00,   2,  3.851E-03,  7.446E-05,  1.612E-13,  1.516E-14,  2.613E+02,  2.457E+01, 255
2019-322T03:38:48.630,   1, 180,   1,   120,   4,          0,     46.364,  99218.184,    96.819,   -26.573,     0.313,   214.117, 2, 5.486E-04, -1.00,   2,  4.051E-03,  7.499E-05,  9.914E-14,  1.459E-14,  1.528E+02,  2.248E+01, 255
2019-322T03:40:48.631,   1, 180,   1,   120,   4,          0,     46.364,  99218.184,    96.823,   -26.572,     0.313,   212.908, 2, 5.486E-04, -1.00,   2,  4.197E-03,  7.594E-05,  9.927E-14,  1.428E-14,  1.476E+02,  2.123E+01, 255
2019-322T03:42:48.633,   1, 180,   1,   120,   4,          0,     46.364,  99218.184,    96.827,   -26.572,     0.313,   211.698, 2, 5.486E-04, -1.00,   2,  3.803E-03,  7.457E-05,  1.536E-13,  1.556E-14,  2.520E+02,  2.554E+01, 255
2019-322T03:44:48.634,   1, 180,   1,   120,   4,          0,     46.364,  99218.184,    96.830,   -26.571,     0.313,   210.489, 2, 5.486E-04, -1.00,   2,  3.826E-03,  7.564E-05,  9.858E-14,  1.491E-14,  1.608E+02,  2.433E+01, 255
2019-322T03:46:48.636,   1, 180,   1,   120,   4,          0,     46.364,  99218.184,    96.834,   -26.570,     0.313,   209.280, 2, 5.486E-04, -1.00,   2,  3.556E-03,  7.325E-05,  1.154E-14,  1.399E-14,  2.025E+01,  2.456E+01, 255
2019-322T03:48:48.637,   1, 180,   1,   120,   4,          0,     46.364,  99218.184,    96.838,   -26.570,     0.313,   208.070, 2, 5.486E-04, -1.00,   2,  3.643E-03,  7.258E-05,  1.736E-13,  1.461E-14,  2.975E+02,  2.503E+01, 255
2019-322T03:50:48.638,   1, 180,   1,   120,   4,          0,     46.364,  99218.184,    96.842,   -26.569,     0.313,   206.861, 2, 5.486E-04, -1.00,   2,  3.353E-03,  7.102E-05,  5.521E-15,  1.402E-14,  1.028E+01,  2.609E+01, 255
2019-322T03:52:48.640,   1, 180,   1,   120,   4,          0,     46.364,  99218.184,    96.845,   -26.569,     0.313,   205.652, 2, 5.486E-04, -1.00,   2,  3.532E-03,  7.415E-05,  3.359E-14,  1.400E-14,  5.937E+01,  2.474E+01, 255
2019-322T03:54:48.641,   1, 180,   1,   120,   4,          0,     46.364,  99218.184,    96.849,   -26.568,     0.313,   204.443, 2, 5.486E-04, -1.00,   2,  3.744E-03,  7.513E-05,  1.564E-13,  1.489E-14,  2.608E+02,  2.482E+01, 255
2019-322T04:00:48.645,   1, 180,   1,   120,   4,          0,     46.364,  99218.184,    96.860,   -26.566,     0.313,   200.815, 2, 5.486E-04, -1.00,   2,  2.940E-03,  6.967E-05,  3.684E-14,  1.429E-14,  7.822E+01,  3.035E+01, 255
2019-322T04:02:48.646,   1, 180,   1,   120,   4,          0,     46.364,  99218.184,    96.864,   -26.566,     0.313,   199.605, 2, 5.486E-04, -1.00,   2,  3.709E-03,  7.421E-05,  9.616E-14,  1.481E-14,  1.618E+02,  2.493E+01, 255
2019-322T04:04:48.648,   1, 180,   1,   120,   4,          0,     46.364,  99218.184,    96.868,   -26.565,     0.313,   198.396, 2, 5.486E-04, -1.00,   2,  3.695E-03,  7.519E-05,  8.811E-15,  1.390E-14,  1.489E+01,  2.349E+01, 255
2019-322T04:06:48.649,   1, 180,   1,   120,   4,          0,     46.364,  99218.184,    96.871,   -26.564,     0.313,   197.187, 2, 5.486E-04, -1.00,   2,  3.830E-03,  7.558E-05,  1.200E-13,  1.435E-14,  1.956E+02,  2.339E+01, 255
2019-322T04:08:48.651,   1, 180,   1,   120,   4,          0,     46.364,  99218.184,    96.875,   -26.564,     0.313,   195.977, 2, 5.486E-04, -1.00,   2,  3.834E-03,  7.624E-05,  9.680E-14,  1.469E-14,  1.576E+02,  2.392E+01, 255
2019-322T04:10:48.652,   1, 180,   1,   120,   4,          0,     46.364,  99218.184,    96.879,   -26.563,     0.313,   194.768, 2, 5.486E-04, -1.00,   2,  3.995E-03,  7.741E-05,  2.990E-14,  1.393E-14,  4.671E+01,  2.176E+01, 255
2019-322T04:12:48.653,   1, 180,   1,   120,   4,          0,     46.364,  99218.184,    96.883,   -26.563,     0.313,   193.559, 2, 5.486E-04, -1.00,   2,  4.048E-03,  7.725E-05,  3.545E-14,  1.454E-14,  5.465E+01,  2.242E+01, 255
2019-322T04:14:48.655,   1, 180,   1,   120,   4,          0,     46.364,  99218.184,    96.886,   -26.562,     0.313,   192.349, 2, 5.486E-04, -1.00,   2,  4.227E-03,  7.767E-05,  1.590E-13,  1.474E-14,  2.347E+02,  2.177E+01, 255
2019-322T04:16:48.656,   1, 180,   1,   120,   4,          0,     46.364,  99218.184,    96.890,   -26.562,     0.313,   191.140, 2, 5.486E-04, -1.00,   2,  4.456E-03,  7.993E-05,  6.496E-14,  1.452E-14,  9.099E+01,  2.034E+01, 255
2019-322T04:18:48.657,   1, 180,   1,   120,   4,          0,     46.364,  99218.184,    96.894,   -26.561,     0.313,   189.931, 2, 5.486E-04, -1.00,   2,  4.132E-03,  7.692E-05,  1.911E-13,  1.516E-14,  2.887E+02,  2.290E+01, 255
2019-322T04:20:48.659,   1, 180,   1,   120,   4,          0,     46.364,  99218.184,    96.898,   -26.560,     0.313,   188.722, 2, 5.486E-04, -1.00,   2,  4.189E-03,  7.867E-05,  9.682E-14,  1.434E-14,  1.443E+02,  2.136E+01, 255
2019-322T04:22:48.660,   1, 180,   1,   120,   4,          0,     46.364,  99218.184,    96.901,   -26.560,     0.313,   187.512, 2, 5.486E-04, -1.00,   2,  3.940E-03,  7.482E-05,  6.494E-14,  1.440E-14,  1.029E+02,  2.281E+01, 255
2019-322T04:32:48.667,   1, 180,   1,   120,   4,          0,     46.364,  99218.184,    96.920,   -26.557,     0.313,   181.466, 2, 5.486E-04, -1.00,   2,  3.718E-03,  7.215E-05,  7.782E-14,  1.469E-14,  1.306E+02,  2.465E+01, 255
2019-322T04:34:48.668,   1, 180,   1,   120,   4,          0,     46.364,  99218.184,    96.924,   -26.556,     0.313,   180.256, 2, 5.486E-04, -1.00,   2,  4.629E-03,  7.730E-05,  1.024E-13,  1.467E-14,  1.381E+02,  1.978E+01, 255
2019-322T04:36:48.670,   1, 180,   1,   120,   4,          0,     46.364,  99218.184,    96.927,   -26.556,     0.313,   179.047, 2, 5.486E-04, -1.00,   2,  4.684E-03,  7.609E-05,  2.548E-13,  1.528E-14,  3.395E+02,  2.036E+01, 255
2019-322T04:38:48.671,   1, 180,   1,   120,   4,          0,     46.364,  99218.184,    96.931,   -26.555,     0.313,   177.838, 2, 5.486E-04, -1.00,   2,  4.465E-03,  7.476E-05,  1.586E-13,  1.461E-14,  2.217E+02,  2.043E+01, 255
2019-322T04:40:48.672,   1, 180,   1,   120,   4,          0,     46.364,  99218.184,    96.935,   -26.554,     0.313,   176.629, 2, 5.486E-04, -1.00,   2,  4.485E-03,  7.618E-05,  1.544E-13,  1.484E-14,  2.149E+02,  2.066E+01, 255
2019-322T04:46:48.677,   1, 180,   1,   120,   4,          0,     46.364,  99218.184,    96.946,   -26.553,     0.313,   173.001, 2, 5.486E-04, -1.00,   2,  3.246E-03,  7.279E-05,  6.814E-14,  1.432E-14,  1.310E+02,  2.754E+01, 255
2019-322T04:48:48.678,   1, 180,   1,   120,   4,          0,     46.364,  99218.184,    96.950,   -26.552,     0.313,   171.791, 2, 5.486E-04, -1.00,   2,  3.408E-03,  7.334E-05,  7.772E-14,  1.437E-14,  1.423E+02,  2.632E+01, 255
2019-322T04:50:48.679,   1, 180,   1,   120,   4,          0,     46.364,  99218.184,    96.954,   -26.552,     0.312,   170.582, 2, 5.486E-04, -1.00,   2,  3.704E-03,  7.374E-05,  1.483E-13,  1.474E-14,  2.499E+02,  2.485E+01, 255
2019-322T04:52:48.681,   1, 180,   1,   120,   4,          0,     46.364,  99218.184,    96.957,   -26.551,     0.312,   169.373, 2, 5.486E-04, -1.00,   2,  3.326E-03,  7.042E-05,  1.110E-13,  1.475E-14,  2.083E+02,  2.767E+01, 255
2019-322T04:54:48.682,   1, 180,   1,   120,   4,          0,     46.364,  99218.184,    96.961,   -26.550,     0.312,   168.163, 2, 5.486E-04, -1.00,   2,  3.096E-03,  6.882E-05,  6.881E-14,  1.449E-14,  1.387E+02,  2.922E+01, 255
2019-322T04:56:48.683,   1, 180,   1,   120,   4,          0,     46.364,  99218.184,    96.965,   -26.550,     0.312,   166.954, 2, 5.486E-04, -1.00,   2,  3.681E-03,  7.125E-05,  1.706E-13,  1.434E-14,  2.892E+02,  2.431E+01, 255
2019-322T04:58:48.685,   1, 180,   1,   120,   4,          0,     46.364,  99218.184,    96.968,   -26.549,     0.312,   165.745, 2, 5.486E-04, -1.00,   2,  4.677E-03,  7.831E-05,  1.640E-13,  1.471E-14,  2.189E+02,  1.963E+01, 255
2019-322T05:00:48.686,   1, 180,   1,   120,   4,          0,     46.364,  99218.184,    96.972,   -26.549,     0.312,   164.535, 2, 5.486E-04, -1.00,   2,  4.504E-03,  7.659E-05,  2.039E-13,  1.489E-14,  2.826E+02,  2.064E+01, 255
2019-322T05:02:48.687,   1, 180,   1,   120,   4,          0,     46.364,  99218.184,    96.976,   -26.548,     0.312,   163.326, 2, 5.486E-04, -1.00,   2,  4.428E-03,  7.471E-05,  1.515E-13,  1.451E-14,  2.135E+02,  2.045E+01, 255
2019-322T05:04:48.689,   1, 180,   1,   120,   4,          0,     46.364,  99218.184,    96.980,   -26.547,     0.312,   162.117, 2, 5.486E-04, -1.00,   2,  4.089E-03,  7.468E-05,  7.748E-14,  1.483E-14,  1.183E+02,  2.263E+01, 255
2019-322T05:06:48.690,   1, 180,   1,   120,   4,          0,     46.364,  99218.184,    96.983,   -26.547,     0.312,   160.908, 2, 5.486E-04, -1.00,   2,  4.205E-03,  7.377E-05,  1.484E-13,  1.454E-14,  2.203E+02,  2.158E+01, 255
2019-322T05:08:48.692,   1, 180,   1,   120,   4,          0,     46.364,  99218.184,    96.987,   -26.546,     0.312,   159.698, 2, 5.486E-04, -1.00,   2,  3.885E-03,  7.370E-05,  8.728E-14,  1.509E-14,  1.402E+02,  2.425E+01, 255
2019-322T05:10:48.693,   1, 180,   1,   120,   4,          0,     46.364,  99218.184,    96.991,   -26.546,     0.312,   158.489, 2, 5.486E-04, -1.00,   2,  4.748E-03,  7.764E-05,  1.536E-13,  1.445E-14,  2.019E+02,  1.900E+01, 255
2019-322T05:12:48.694,   1, 180,   1,   120,   4,          0,     46.364,  99218.184,    96.994,   -26.545,     0.312,   157.280, 2, 5.486E-04, -1.00,   2,  4.730E-03,  7.788E-05,  2.057E-13,  1.557E-14,  2.714E+02,  2.055E+01, 255
2019-322T05:14:48.696,   1, 180,   1,   120,   4,          0,     46.364,  99218.184,    96.998,   -26.544,     0.312,   156.070, 2, 5.486E-04, -1.00,   2,  4.868E-03,  7.757E-05,  2.080E-13,  1.499E-14,  2.666E+02,  1.921E+01, 255
2019-322T05:16:48.697,   1, 180,   1,   120,   4,          0,     46.364,  99218.184,    97.002,   -26.544,     0.312,   154.861, 2, 5.486E-04, -1.00,   2,  4.910E-03,  7.908E-05,  9.201E-14,  1.467E-14,  1.170E+02,  1.865E+01, 255
2019-322T05:18:48.698,   1, 180,   1,   120,   4,          0,     46.364,  99218.184,    97.006,   -26.543,     0.312,   153.652, 2, 5.486E-04, -1.00,   2,  4.940E-03,  7.830E-05,  1.271E-13,  1.460E-14,  1.606E+02,  1.844E+01, 255
2019-322T05:20:48.700,   1, 180,   1,   120,   4,          0,     46.364,  99218.184,    97.009,   -26.543,     0.312,   152.442, 2, 5.486E-04, -1.00,   2,  5.038E-03,  7.951E-05,  1.588E-13,  1.515E-14,  1.967E+02,  1.877E+01, 255
2019-322T05:22:48.701,   1, 180,   1,   120,   4,          0,     46.364,  99218.184,    97.013,   -26.542,     0.312,   151.233, 2, 5.486E-04, -1.00,   2,  4.597E-03,  7.601E-05,  7.292E-14,  1.447E-14,  9.899E+01,  1.964E+01, 255
2019-322T05:24:48.702,   1, 180,   1,   120,   4,          0,     46.364,  99218.184,    97.017,   -26.541,     0.312,   150.024, 2, 5.486E-04, -1.00,   2,  4.517E-03,  7.632E-05,  1.079E-13,  1.475E-14,  1.491E+02,  2.038E+01, 255
2019-322T05:26:48.704,   1, 180,   1,   120,   4,          0,     46.364,  99218.184,    97.020,   -26.541,     0.312,   148.815, 2, 5.486E-04, -1.00,   2,  4.553E-03,  7.602E-05,  1.183E-13,  1.480E-14,  1.622E+02,  2.029E+01, 255
2019-322T05:28:48.705,   1, 180,   1,   120,   4,          0,     46.364,  99218.184,    97.024,   -26.540,     0.312,   147.605, 2, 5.486E-04, -1.00,   2,  4.261E-03,  7.402E-05,  1.334E-13,  1.500E-14,  1.954E+02,  2.197E+01, 255
2019-322T06:50:48.761,   1, 180,   1,   120,   4,          0,     46.364,  99218.184,    97.176,   -26.516,     0.311,    98.024, 2, 5.486E-04, -1.00,   2,  3.508E-03,  7.166E-05,  1.221E-13,  1.432E-14,  2.171E+02,  2.548E+01, 255
2019-322T06:52:48.763,   1, 180,   1,   120,   4,          0,     46.364,  99218.184,    97.180,   -26.516,     0.311,    96.815, 2, 5.486E-04, -1.00,   2,  3.655E-03,  7.187E-05,  1.068E-13,  1.478E-14,  1.824E+02,  2.525E+01, 255
2019-322T06:54:48.764,   1, 180,   1,   120,   4,          0,     46.364,  99218.184,    97.183,   -26.515,     0.311,    95.605, 2, 5.486E-04, -1.00,   2,  4.167E-03,  7.608E-05,  1.548E-13,  1.484E-14,  2.318E+02,  2.223E+01, 255
2019-322T06:58:48.767,   1, 180,   1,   120,   4,          0,     46.364,  99218.184,    97.191,   -26.514,     0.311,    93.187, 2, 5.486E-04, -1.00,   2,  3.784E-03,  7.378E-05,  1.784E-13,  1.540E-14,  2.942E+02,  2.540E+01, 255
2019-322T07:00:48.768,   1, 180,   1,   120,   4,          0,     46.364,  99218.184,    97.195,   -26.513,     0.311,    91.977, 2, 5.486E-04, -1.00,   2,  3.959E-03,  7.424E-05,  1.941E-13,  1.483E-14,  3.060E+02,  2.338E+01, 255
2019-322T07:02:48.769,   1, 180,   1,   120,   4,          0,     46.364,  99218.184,    97.198,   -26.513,     0.311,    90.768, 2, 5.486E-04, -1.00,   2,  3.799E-03,  7.405E-05,  2.318E-14,  1.375E-14,  3.809E+01,  2.260E+01, 255
2019-322T07:04:48.771,   1, 180,   1,   120,   4,          0,     46.364,  99218.184,    97.202,   -26.512,     0.311,    89.559, 2, 5.486E-04, -1.00,   2,  3.866E-03,  7.420E-05,  9.968E-14,  1.472E-14,  1.609E+02,  2.377E+01, 255
2019-322T07:06:48.772,   1, 180,   1,   120,   4,          0,     46.364,  99218.184,    97.206,   -26.512,     0.311,    88.349, 2, 5.486E-04, -1.00,   2,  4.000E-03,  7.546E-05,  1.588E-13,  1.457E-14,  2.478E+02,  2.274E+01, 255
2019-322T07:08:48.773,   1, 180,   1,   120,   4,          0,     46.364,  99218.184,    97.209,   -26.511,     0.311,    87.140, 2, 5.486E-04, -1.00,   2,  3.694E-03,  7.527E-05,  1.401E-13,  1.553E-14,  2.367E+02,  2.624E+01, 255
2019-322T07:10:48.775,   1, 180,   1,   120,   4,          0,     46.364,  99218.184,    97.213,   -26.510,     0.311,    85.931, 2, 5.486E-04, -1.00,   2,  3.602E-03,  7.414E-05,  3.335E-14,  1.442E-14,  5.780E+01,  2.499E+01, 255
2019-322T07:12:48.776,   1, 180,   1,   120,   4,          0,     46.364,  99218.184,    97.217,   -26.510,     0.311,    84.722, 2, 5.486E-04, -1.00,   2,  3.537E-03,  7.344E-05,  1.326E-13,  1.506E-14,  2.340E+02,  2.658E+01, 255
